• In Slovakia
  • List of Countries
  • For 7 days
  • Water Temperature
  • Satellite Maps
  • Weather Map
  • Weather Widgets
  • user-avatar
    Login

    Hourly Weather Bachledova dolina

    Today, 17 October, Wednesday

    Time Temperature Precipitation Wind Pressure Humidity
    00:00 +9°C° 0 mm 1 mps 683 mmHg 57%
    01:00 +8°C° 0 mm 1 mps 683 mmHg 57%
    02:00 +9°C° 0 mm 1 mps 683 mmHg 56%
    03:00 +9°C° 0 mm 1 mps 683 mmHg 56%
    04:00 +9°C° 0 mm 1 mps 683 mmHg 56%
    05:00 +9°C° 0 mm 1 mps 683 mmHg 57%
    06:00 +9°C° 0 mm 1 mps 683 mmHg 57%
    07:00 +9°C° 0 mm 1 mps 683 mmHg 58%
    08:00 +12°C° 0 mm 1 mps 684 mmHg 52%
    09:00 +14°C° 0 mm 1 mps 684 mmHg 46%
    10:00 +16°C° 0 mm 1 mps 685 mmHg 40%
    11:00 +18°C° 0 mm 1 mps 684 mmHg 39%
    12:00 +19°C° 0 mm 1 mps 684 mmHg 38%
    13:00 +19°C° 0 mm 1 mps 684 mmHg 37%
    14:00 +18°C° 0 mm 1 mps 684 mmHg 42%
    15:00 +16°C° 0 mm 1 mps 683 mmHg 47%
    16:00 +15°C° 0 mm 1 mps 683 mmHg 52%
    17:00 +13°C° 0 mm 1 mps 682 mmHg 54%
    18:00 +12°C° 0 mm 1 mps 682 mmHg 56%
    19:00 +10°C° 0 mm 0 mps 682 mmHg 57%
    20:00 +10°C° 0 mm 0 mps 682 mmHg 58%
    21:00 +10°C° 0 mm 0 mps 682 mmHg 58%
    22:00 +10°C° 0 mm 0 mps 682 mmHg 58%
    23:00 +10°C° 0 mm 0 mps 682 mmHg 58%

    Tomorrow, 18 October, Thursday

    Time Temperature Precipitation Wind Pressure Humidity
    00:00 +9°C° 0 mm 0 mps 682 mmHg 59%
    01:00 +9°C° 0 mm 0 mps 681 mmHg 59%
    02:00 +9°C° 0 mm 0 mps 681 mmHg 60%
    03:00 +9°C° 0 mm 0 mps 681 mmHg 60%
    04:00 +8°C° 0 mm 0 mps 681 mmHg 61%
    05:00 +10°C° 0 mm 1 mps 681 mmHg 62%
    06:00 +10°C° 0 mm 1 mps 681 mmHg 62%
    07:00 +10°C° 0 mm 1 mps 681 mmHg 63%
    08:00 +10°C° 0 mm 0 mps 681 mmHg 59%
    09:00 +12°C° 0 mm 0 mps 682 mmHg 56%
    10:00 +13°C° 0 mm 0 mps 682 mmHg 52%
    11:00 +14°C° 0 mm 0 mps 682 mmHg 50%
    12:00 +14°C° 0 mm 0 mps 682 mmHg 48%
    13:00 +15°C° 0 mm 0 mps 682 mmHg 46%
    14:00 +14°C° 0 mm 0 mps 682 mmHg 50%
    15:00 +13°C° 0 mm 0 mps 681 mmHg 55%
    16:00 +12°C° 0 mm 0 mps 681 mmHg 60%
    17:00 +11°C° 0 mm 0 mps 681 mmHg 63%
    18:00 +10°C° 0 mm 0 mps 681 mmHg 66%
    19:00 +9°C° 0 mm 0 mps 681 mmHg 70%
    20:00 +10°C° 0 mm 1 mps 681 mmHg 71%
    21:00 +10°C° 0 mm 1 mps 681 mmHg 72%
    22:00 +9°C° 0 mm 1 mps 681 mmHg 73%
    23:00 +9°C° 0 mm 1 mps 681 mmHg 73%

    Day after tomorrow, 19 October, Friday

    Time Temperature Precipitation Wind Pressure Humidity
    00:00 +9°C° 0 mm 1 mps 681 mmHg 73%
    01:00 +9°C° 0 mm 1 mps 681 mmHg 74%
    02:00 +8°C° 0 mm 1 mps 681 mmHg 75%
    03:00 +8°C° 0 mm 1 mps 681 mmHg 76%
    04:00 +8°C° 0 mm 1 mps 680 mmHg 77%
    05:00 +8°C° 0 mm 1 mps 681 mmHg 77%
    06:00 +8°C° 0 mm 1 mps 681 mmHg 77%
    07:00 +8°C° 0 mm 1 mps 681 mmHg 77%
    08:00 +10°C° 0 mm 1 mps 682 mmHg 73%
    09:00 +11°C° 0 mm 1 mps 682 mmHg 69%
    10:00 +13°C° 0 mm 2 mps 683 mmHg 64%
    11:00 +13°C° 0.5 mm 2 mps 683 mmHg 64%
    12:00 +13°C° 0.5 mm 2 mps 683 mmHg 65%
    13:00 +13°C° 0.5 mm 3 mps 683 mmHg 65%
    14:00 +13°C° 0.4 mm 2 mps 682 mmHg 69%
    15:00 +12°C° 0.4 mm 2 mps 682 mmHg 73%
    16:00 +10°C° 0.4 mm 2 mps 682 mmHg 77%
    17:00 +10°C° 0.2 mm 2 mps 682 mmHg 81%
    18:00 +9°C° 0.2 mm 2 mps 683 mmHg 85%
    19:00 +9°C° 0.2 mm 1 mps 683 mmHg 89%
    20:00 +9°C° 0.1 mm 1 mps 683 mmHg 90%
    21:00 +9°C° 0.1 mm 1 mps 683 mmHg 91%
    22:00 +9°C° 0.1 mm 1 mps 683 mmHg 92%
    23:00 +8°C° 0 mm 1 mps 683 mmHg 93%

    20 October, Saturday

    Time Temperature Precipitation Wind Pressure Humidity
    00:00 +8°C° 0 mm 1 mps 683 mmHg 93%
    01:00 +8°C° 0 mm 1 mps 683 mmHg 94%
    02:00 +8°C° 0 mm 1 mps 684 mmHg 94%
    03:00 +8°C° 0 mm 1 mps 684 mmHg 94%
    04:00 +8°C° 0 mm 1 mps 684 mmHg 94%
    05:00 +8°C° 0 mm 1 mps 684 mmHg 94%
    06:00 +8°C° 0 mm 1 mps 684 mmHg 93%
    07:00 +7°C° 0 mm 2 mps 685 mmHg 93%
    08:00 +7°C° 0 mm 2 mps 685 mmHg 90%
    09:00 +8°C° 0 mm 2 mps 685 mmHg 86%
    10:00 +8°C° 0 mm 2 mps 686 mmHg 83%
    11:00 +8°C° 0 mm 2 mps 686 mmHg 81%
    12:00 +8°C° 0 mm 2 mps 686 mmHg 78%
    13:00 +8°C° 0 mm 2 mps 686 mmHg 76%
    14:00 +8°C° 0 mm 2 mps 686 mmHg 76%
    15:00 +7°C° 0 mm 2 mps 685 mmHg 76%
    16:00 +7°C° 0 mm 2 mps 685 mmHg 77%
    17:00 +6°C° 0 mm 2 mps 685 mmHg 79%
    18:00 +5°C° 0 mm 2 mps 685 mmHg 82%
    19:00 +3°C° 0 mm 2 mps 686 mmHg 85%
    20:00 +4°C° 0 mm 1 mps 686 mmHg 85%
    21:00 +3°C° 0 mm 1 mps 686 mmHg 84%
    22:00 +3°C° 0 mm 1 mps 686 mmHg 84%
    23:00 +2°C° 0 mm 1 mps 686 mmHg 85%

    21 October, Sunday

    Time Temperature Precipitation Wind Pressure Humidity
    00:00 +2°C° 0 mm 1 mps 686 mmHg 86%
    01:00 +2°C° 0 mm 1 mps 686 mmHg 88%
    02:00 +2°C° 0 mm 1 mps 686 mmHg 89%
    03:00 +1°C° 0 mm 1 mps 686 mmHg 91%
    04:00 +1°C° 0 mm 1 mps 686 mmHg 92%
    05:00 +1°C° 0 mm 1 mps 686 mmHg 92%
    06:00 +2°C° 0 mm 1 mps 686 mmHg 92%
    07:00 +2°C° 0 mm 1 mps 686 mmHg 92%
    08:00 +3°C° 0 mm 1 mps 687 mmHg 84%
    09:00 +4°C° 0 mm 2 mps 687 mmHg 77%
    10:00 +6°C° 0 mm 2 mps 687 mmHg 69%
    11:00 +6°C° 0 mm 2 mps 687 mmHg 66%
    12:00 +7°C° 0 mm 2 mps 687 mmHg 64%
    13:00 +7°C° 0 mm 2 mps 687 mmHg 61%
    14:00 +7°C° 0 mm 2 mps 686 mmHg 64%
    15:00 +6°C° 0 mm 2 mps 686 mmHg 68%
    16:00 +5°C° 0 mm 2 mps 686 mmHg 71%
    17:00 +5°C° 0 mm 1 mps 685 mmHg 77%
    18:00 +4°C° 0 mm 1 mps 685 mmHg 83%
    19:00 +3°C° 0 mm 1 mps 685 mmHg 89%
    20:00 +2°C° 0 mm 1 mps 685 mmHg 89%
    21:00 +2°C° 0 mm 1 mps 685 mmHg 90%
    22:00 +2°C° 0 mm 1 mps 685 mmHg 90%
    23:00 +2°C° 0 mm 1 mps 684 mmHg 90%

    22 October, Monday

    Time Temperature Precipitation Wind Pressure Humidity
    00:00 +2°C° 0 mm 1 mps 684 mmHg 89%
    01:00 +2°C° 0 mm 1 mps 684 mmHg 89%
    02:00 +2°C° 0 mm 1 mps 684 mmHg 88%
    03:00 +1°C° 0 mm 1 mps 683 mmHg 88%
    04:00 +1°C° 0 mm 1 mps 683 mmHg 87%
    05:00 +2°C° 0 mm 1 mps 683 mmHg 85%
    06:00 +2°C° 0 mm 1 mps 683 mmHg 83%
    07:00 +1°C° 0 mm 0 mps 683 mmHg 81%
    08:00 +5°C° 0 mm 1 mps 684 mmHg 71%
    09:00 +7°C° 0 mm 1 mps 684 mmHg 62%
    10:00 +10°C° 0 mm 1 mps 685 mmHg 53%
    11:00 +10°C° 0 mm 1 mps 684 mmHg 50%
    12:00 +11°C° 0 mm 1 mps 684 mmHg 48%
    13:00 +12°C° 0 mm 1 mps 684 mmHg 46%
    14:00 +11°C° 0 mm 1 mps 683 mmHg 51%
    15:00 +9°C° 0 mm 1 mps 683 mmHg 57%
    16:00 +8°C° 0 mm 1 mps 682 mmHg 62%
    17:00 +7°C° 0 mm 1 mps 682 mmHg 67%
    18:00 +6°C° 0 mm 1 mps 682 mmHg 72%
    19:00 +3°C° 0 mm 0 mps 681 mmHg 77%
    20:00 +4°C° 0 mm 1 mps 681 mmHg 79%
    21:00 +4°C° 0 mm 1 mps 681 mmHg 80%
    22:00 +3°C° 0 mm 1 mps 681 mmHg 82%
    23:00 +3°C° 0 mm 1 mps 681 mmHg 82%
    Show more